Showing default

BUZZZER-1, 62609

Orbit data source: Space-Track

BUZZZER-1, 62609 is a payload satellite owned by Unseen Labs (FR) in SSO that was launched on Tue, 14 Jan 2025 UTC via an FALCON 9 launch vehicle from the Air Force Western Test Range (AFWTR). Payload-class satellites include a variety of spacecraft equipped with specific instruments for various scientific and technological missions. These include communications satellites like Starlink; space stations such as the ISS; scientific satellites like the Hubble; Earth observation satellites from companies like Planet Labs, Umbra, and HawkEye 360; GPS; miniature CubeSats for education and research; and military/defense satellites.

Loading next visibility...
Identifier
62609, 2025-009A
Orbit
SSO
Last TLE update
13 hours ago
Origin
Manufacturer
Unseen Labs
Mission
Operational Commercial Sigint
Bus & Motor
CUBESAT 6U, Unknown motor
Mass
~10 kg wet, ~10 kg dry
Launch date (UTC)
2025-01-14 (6 months ago)
Launch vehicle
FALCON 9
Launch site
Air Force Western Test Range (AFWTR)
Object type
Payload
Rocket body
Debris
Shape & HBR
Box + 2 Pan, 0.3 m
Radar Cross Section
0.080 m², Medium (>0.1 m² and < 1m²)

Expand to show TLE details & history

TLE from 13 hours ago
0 BUZZZER-1
1 62609U 25009A   25181.71599402  .00002030  00000-0  10162-3 0  9991
2 62609  97.4243 261.2842 0009553 120.2567 239.9614 15.18498655 25300
Epoch: 2025-06-30T17:11Z
TLE epoch observation values (Epoch: 2025-06-30T17:11:01.883Z)
Latitude
-0.00002°
Longitude
84.50454°
Altitude
516.765 km
Speed
7.603 km/s
True Right ascension
17h 25m 08s
True Declination
0° 00' 00"
Sunlit
Object was in full shadow at epoch
Visualization orbit readout
Latitude
2.61203°
Longitude
-94.60737°
Altitude
509.757 km
Speed
7.611 km/s
Apparent Right ascension
05h 47m 46s
Apparent Declination
-17° 46' 46"
Sunlit
Object is in daylight
Visualization observer readout
Local Sidereal Time
18:14:37
Azimuth
16.627° NNE
Elevation
-67.114°
Doppler factor
1
Orbital elements
Apogee altitude
513.924 km
Perigee altitude
500.768 km
Semi-major axis
6,885.483 km
Eccentricity
0.00096
Inclination
97.4243°
RAAN
261.2842°
Arg. of periapsis
120.2567°
True anomaly
Unknown
Mean anomaly
239.9614°
Eccentric anomaly
Unknown
Mean motion
3.79876 °/min
Orbital period
94.77 mins
BSTAR
0.00010162
Loading maneuver chart data...
Loading SW <> Apogee altitude chart data...
Loading historical data...
Loading historical data...
Loading historical data...
Loading historical data...
Loading historical data...
Loading historical data...
Loading historical data...

BUZZZER-1 Visibility forecast

Observer location: undefined°, undefined°

Span
Click to sort rows by Start time (UTC) header in descending order
Start Az.
Max El. time (UTC)
Max El. Az.
Max El.
End time (UTC)
End Az.
5 mins2025-07-01 17:28:47.996Z43.547° NE2025-07-01 17:31:47.996Z104.056° ESE21.828°2025-07-01 17:33:47.996Z143.511° SSE
4 mins2025-07-01 19:03:47.996Z322.234° NNW2025-07-01 19:05:47.996Z279.281° WNW18.416°2025-07-01 19:07:47.996Z245.203° WSW
5 mins2025-07-02 05:41:47.996Z194.406° SSW2025-07-02 05:43:47.996Z252.738° W36.583°2025-07-02 05:46:47.996Z332.662° NNW
|